Location: Chassey
(47.6432°N, 5.9780°E)
Time: 01:46:35
(UTC+00:00)

Daily predictions for brighter satellites

Satellite Brightness Start Highest point End
(mag) Time Altitude Azimuth Time Altitude Azimuth Time Altitude Azimuth
Cosmos 1464 Rocket 3.9 00:08:47 61° S 00:09:58 81° E 00:16:12 10° N
Cosmos 2333 4.3 00:04:22 10° NNW 00:10:04 60° WSW 00:10:14 59° WSW
Cosmos 2219 Rocket 2.0 00:04:57 10° NNW 00:10:39 82° WSW 00:11:13 72° S
Cosmos 1782 Rocket 3.7 00:12:54 70° N 00:12:54 70° N 00:16:47 10° N
Lacrosse 4 Rocket 1.8 00:13:01 64° N 00:13:01 64° N 00:16:43 10° NNE
Cosmos 1354 Rocket 3.9 00:16:38 71° SE 00:16:54 73° ESE 00:22:15 10° NNE
Cosmos 2322 Rocket 4.1 00:14:52 10° WNW 00:17:43 16° W 00:17:43 16° W
Cosmos 968 Rocket 3.5 00:19:13 63° W 00:19:37 66° WNW 00:24:44 10° NNE
SL-4 R/B 3.9 00:22:19 19° ENE 00:22:19 19° ENE 00:23:29 10° ENE
Cosmos 1908 Rocket 4.4 00:21:10 40° WNW 00:21:10 40° WNW 00:25:06 10° N
SL-16 R/B 4.3 00:17:15 10° N 00:21:47 23° NE 00:26:16 10° E
COSMOS 2428 2.6 00:23:03 10° NNW 00:28:46 68° WSW 00:29:11 65° SW
SL-16 R/B 3.3 00:28:37 25° SE 00:32:03 49° ENE 00:38:03 10° N
BREEZE-M TANK 4.4 00:36:08 18° E 00:36:08 18° E 00:37:23 10° E
Nadezhda 4 Rocket 3.9 00:27:29 10° N 00:33:51 87° W 00:35:18 56° S
Cosmos 2360 Rocket 3.8 00:29:51 10° NW 00:33:24 21° W 00:33:24 21° W
CENTAUR R/B 4.2 00:28:18 10° W 00:34:06 34° NNW 00:40:49 10° NE
CZ-2D R/B 3.3 00:31:45 10° NNE 00:36:42 33° E 00:38:05 29° SE
Cosmos 2034 Rocket 3.9 00:35:41 57° S 00:37:05 89° W 00:43:25 10° N
USA 267 4.3 00:32:36 10° E 00:38:43 45° NNE 00:44:52 10° NW
Okean 2 Rocket 3.1 00:41:46 76° E 00:41:46 76° E 00:46:13 10° NNE
GEOS 3 Rocket 3.6 00:36:38 10° NE 00:42:04 71° SE 00:42:46 63° S
Meteor 2-9 Rocket 4.3 00:41:29 53° WSW 00:42:21 59° WNW 00:47:58 10° N
ADEOS II 4.2 00:41:38 10° NE 00:44:56 17° E 00:47:27 12° ESE
Cosmos 1975 4.1 00:45:31 32° WNW 00:45:31 32° WNW 00:48:45 10° N
Cosmos 1092 Rocket 4.0 00:39:40 10° N 00:45:58 75° E 00:48:01 44° SSE
Cosmos 1975 Rocket 4.0 00:41:58 10° NNW 00:45:36 38° WNW 00:45:36 38° WNW
Cosmos 2297 Rocket 2.9 00:45:36 36° SE 00:46:36 39° ESE 00:51:48 10° NE
Cosmos 2219 3.7 00:45:50 41° SE 00:46:45 45° ESE 00:52:05 10° NE
Cosmos 1980 3.7 00:42:09 10° NNW 00:47:51 77° ENE 00:49:51 42° SE
PSLV R/B 4.4 00:43:41 10° N 00:48:04 43° WNW 00:48:26 42° W
Cosmos 2333 Rocket 2.8 00:43:02 10° NW 00:48:11 40° WSW 00:48:11 40° WSW
Sich 1 Rocket 3.8 00:48:43 58° WNW 00:48:43 58° WNW 00:52:56 10° N
Helios 1B rocket 2.8 00:45:05 10° N 00:48:49 53° NW 00:48:49 53° NW
Cosmos 1777 Rocket 4.3 00:49:00 50° SE 00:49:44 55° ESE 00:54:54 10° NNE
Meteor 1-29 3.9 00:49:37 10° N 00:52:12 47° N 00:52:12 47° N
UNK 4.3 00:52:22 42° ESE 00:53:36 55° ENE 00:58:11 10° N
Cosmos 44 Rocket 3.3 00:50:21 10° NW 00:55:08 64° WSW 00:55:08 64° WSW
Cosmos 1300 Rocket 3.4 00:57:53 79° WNW 00:57:53 79° WNW 01:02:09 10° N
Cosmos 2237 Rocket 2.1 00:52:12 10° NNW 00:57:54 85° ENE 00:59:51 43° SSE
DELTA 2 DEB (DPAF) 4.0 01:00:27 72° SE 01:00:52 82° ENE 01:05:20 10° NNW
Okean 1 Rocket 3.9 01:01:02 38° ESE 01:01:39 40° E 01:05:44 10° NNE
Cosmos 1626 4.4 00:59:55 10° NNE 01:02:43 20° ENE 01:04:26 15° ESE
CZ-4C R/B 3.6 01:04:19 52° ENE 01:04:19 52° ENE 01:07:35 10° N
Spot 1 3.9 01:06:48 76° W 01:06:48 76° W 01:10:48 10° NNW
Iridium 51 4.3 01:04:20 10° N 01:08:42 82° W 01:08:42 82° W
Cosmos 2151 Rocket 3.4 01:12:29 71° WSW 01:12:43 73° W 01:17:09 10° N
Meteor 1-12 Rocket 4.4 01:11:28 49° SW 01:13:03 69° WNW 01:19:04 10° N
Timation 2 Rocket 3.9 01:14:34 46° SW 01:16:31 80° WNW 01:22:36 10° NNE
Cosmos 1707 4.0 01:14:20 10° NNW 01:17:05 31° WNW 01:17:05 31° WNW
In-Cosmos 22 4.2 01:12:31 10° NNW 01:18:05 64° W 01:19:15 51° SSW
Meteor 1-15 Rocket 4.2 01:22:53 44° S 01:24:45 80° E 01:30:23 10° NNE
Cosmos 1805 3.5 01:24:26 55° ESE 01:24:47 58° E 01:28:37 10° NNE
SJ 16-02 2.6 01:25:10 28° SE 01:26:22 32° ESE 01:30:19 10° NE
DNEPR-1 R/B 4.1 01:21:07 10° NW 01:27:06 80° NE 01:31:05 16° SE
ERBS 3.0 01:24:01 10° NW 01:27:16 53° NNE 01:30:29 10° ESE
SAR-Lupe-3 4.5 01:25:34 10° NNE 01:29:06 86° NE 01:29:06 86° NE
Cosmos 1538 Rocket 4.0 01:29:45 10° NNW 01:34:51 58° WSW 01:35:51 48° SSW
Cosmos 2227 Rocket 2.2 01:33:34 43° SSW 01:35:29 78° ESE 01:41:11 10° NNE
Cosmos 1025 Rocket 4.1 01:32:44 10° NNW 01:36:08 29° W 01:36:08 29° W
MOZ.5/SAFIR/RUBIN 5/SL-8 4.3 01:36:59 41° WSW 01:37:17 42° W 01:41:49 10° NNW
Resurs 1-4 Rocket 2.0 01:32:23 10° NNE 01:37:41 79° WNW 01:39:24 44° SSW
Cosmos 1674 2.7 01:36:16 10° NNW 01:39:47 60° W 01:39:47 60° W
Cosmos 1892 Rocket 4.3 01:39:03 10° N 01:43:27 52° ENE 01:46:08 22° SE
Cosmos 1733 3.3 01:42:54 53° SSE 01:43:34 66° E 01:47:22 10° NNE
ATLAS 3B R/B 4.2 01:41:41 10° W 01:47:18 28° NNW 01:53:02 10° NNE
Cosmos 2279 Rocket 3.9 01:44:46 33° S 01:47:44 89° ESE 01:53:58 10° N
Cosmos 1461 4.3 01:47:03 25° SE 01:48:21 29° ESE 01:52:16 10° NE
USA 215 3.4 01:41:55 10° ENE 01:48:25 61° SE 01:51:29 32° SSW
Cosmos 2026 Rocket 4.2 01:43:06 10° NNW 01:48:57 51° W 01:51:08 35° SW
COBE Rocket 3.7 01:47:33 32° SSE 01:49:43 86° ENE 01:54:23 10° NNW
Lacrosse 4 Rocket 3.9 01:49:35 10° WNW 01:51:53 14° NW 01:54:10 10° N
Cosmos 1634 Rocket 4.2 01:50:26 34° SW 01:52:59 55° WNW 01:59:07 10° N
FALCON 9 DEB 4.2 01:50:07 10° WNW 01:53:31 47° NNE 01:56:53 10° E
Cosmos 2219 Rocket 4.1 01:51:03 10° WNW 01:52:54 13° W 01:52:54 13° W
Cosmos 2344 4.5 01:46:02 10° NW 01:55:34 63° WSW 02:08:49 10° SSE
SL-24 R/B 4.3 01:53:41 33° S 01:55:54 90° SE 02:00:56 10° N
Cosmos 2082 3.8 01:53:29 32° S 01:56:03 66° ESE 02:01:38 10° NNE
Cosmos 1340 Rocket 4.4 01:54:19 17° SE 01:56:38 29° E 02:00:06 10° NNE
SL-4 R/B 1.4 01:58:02 24° WNW 01:59:58 87° N 02:03:23 10° ESE
Cosmos 2112 Rocket 4.2 01:55:09 10° NNW 02:00:24 73° ENE 02:05:35 10° SSE
Meteor 1-24 Rocket 3.5 01:59:55 10° NNW 02:05:27 81° W 02:08:55 23° S
SL-16 R/B 2.1 02:00:49 10° NNW 02:06:32 77° WSW 02:12:12 10° SSE
CBERS-1 4.0 02:01:23 10° NNE 02:06:32 87° ESE 02:09:09 30° SSW
Cosmos 1726 4.4 02:04:30 10° SE 02:07:14 20° E 02:09:59 10° NE
Meteor 2-5 Rocket 3.8 02:03:34 10° NNW 02:09:07 59° W 02:11:58 28° SSW
ARIANE 5 R/B 3.2 02:08:54 10° NNE 02:13:59 50° E 02:18:02 16° S
H-2A R/B 4.1 02:11:05 10° ESE 02:14:31 26° ENE 02:17:57 10° N
Cosmos 1898 Rocket 3.9 02:11:41 24° S 02:14:48 60° ESE 02:19:57 10° NNE
NPP 4.1 02:10:40 10° N 02:15:50 47° WNW 02:18:22 27° SW
SL-16 R/B 3.3 02:13:43 27° SW 02:15:50 33° W 02:21:27 10° NNW
IDEFIX/ARIANE 42P 3.9 02:12:01 10° NNE 02:16:48 36° E 02:21:34 10° SSE
CZ-2D R/B 2.9 02:11:42 10° N 02:16:49 41° WNW 02:19:24 25° WSW
Cosmos 1680 Rocket 3.4 02:12:58 10° NNW 02:18:12 71° WSW 02:22:57 12° SSE
NOSS 3-1 (C) 3.8 02:17:24 23° S 02:20:41 50° ESE 02:26:43 10° NE
USA 267 3.3 02:14:49 10° ESE 02:21:22 84° NE 02:27:57 10° NW
AQUA 4.4 02:17:49 10° N 02:22:21 44° WNW 02:24:26 28° WSW
Cosmos 1544 Rocket 4.0 02:20:01 19° S 02:23:04 61° E 02:27:30 10° NNE
ADEOS II 2.1 02:19:57 10° NNE 02:25:13 75° WNW 02:28:23 25° SSW
Cosmos 1607 4.0 02:18:56 10° NW 02:25:17 61° WSW 02:31:37 10° SSE
Cosmos 990 Rocket 4.0 02:23:20 25° SSW 02:26:28 80° ESE 02:31:40 10° NNE
Cosmos 1766 4.2 02:26:32 28° WSW 02:27:33 32° WNW 02:31:06 10° N
Cosmos 2263 Rocket 3.6 02:24:07 10° SSE 02:28:59 32° ESE 02:33:51 10° NE
IRS-1D 3.7 02:24:04 10° N 02:29:01 59° WNW 02:31:54 25° SW
Meteor 1-22 Rocket 4.2 02:27:12 26° SSW 02:30:08 61° WNW 02:35:24 10° N
Cosmos 2297 Rocket 3.0 02:27:24 21° WSW 02:30:39 39° NW 02:35:57 10° NNE
Cosmos 2219 4.2 02:27:45 19° WSW 02:31:02 34° NW 02:36:10 10° NNE
Okean 1-7 Rocket 3.5 02:27:39 10° NNW 02:32:02 66° W 02:35:04 19° S
IRS-1C 4.1 02:29:27 10° NNE 02:34:50 86° WNW 02:38:42 19° SSW
Cosmos 1626 3.0 02:34:43 10° NNW 02:38:03 31° W 02:38:57 28° WSW
Cosmos 2266 Rocket 4.0 02:32:38 10° NNW 02:38:58 66° W 02:45:02 11° S
Meteor 1-28 Rocket 3.1 02:36:22 18° S 02:39:04 69° WSW 02:42:53 10° NNW
Cosmos 1655 Rocket 4.3 02:33:44 10° NNW 02:39:46 50° W 02:44:28 16° SSW
Cosmos 2237 Rocket 3.7 02:37:51 10° WNW 02:41:11 16° W 02:41:37 16° WSW
Cosmos 1602 Rocket 4.2 02:37:06 10° N 02:41:25 55° ENE 02:45:41 10° SSE
CZ-4B R/B 4.1 02:37:48 10° N 02:42:14 39° WNW 02:44:51 21° WSW
Cosmos 1470 2.8 02:41:43 24° SSW 02:44:00 67° W 02:47:58 10° N
Cosmos 1603 4.1 02:40:19 10° NNW 02:46:05 67° ENE 02:51:45 10° SE
SL-08 R/B 3.5 02:43:55 12° S 02:48:25 56° W 02:53:19 10° NNW
USA 229 DEB 3.8 02:48:34 17° SSW 02:53:47 73° SE 03:00:39 10° NE
USA 229 3.8 02:48:39 17° SSW 02:53:52 72° SE 03:00:42 10° NE
Cosmos 2098 Rocket 3.9 02:49:26 10° NNW 02:53:59 47° W 02:59:34 10° SSW
OPS 8737 4.3 02:57:00 22° SW 02:59:12 75° NW 03:02:11 10° NE
ERBS 3.5 03:00:46 10° W 03:03:33 20° SW 03:05:48 10° S
Meteor 2-14 Rocket 4.4 02:57:44 10° NNW 03:03:50 80° W 03:09:53 10° S
NOSS 2-3 (C) 4.2 03:01:07 14° SSW 03:04:41 54° ESE 03:09:33 10° NE
NOSS 3-1 (A) 3.6 03:00:07 13° SSW 03:04:55 62° ESE 03:11:11 10° NE
SJ 16-02 2.5 03:02:10 16° WSW 03:04:56 30° WNW 03:08:51 10° N
CSL-04 DEB 4.2 03:06:00 10° S 03:09:54 70° WSW 03:13:50 10° NNW
MSX 4.0 03:07:10 10° NNE 03:12:57 76° ESE 03:18:43 10° S
Cosmos 1943 3.2 03:07:41 10° NNW 03:13:20 87° ENE 03:18:58 10° SSE
Cosmos 1626 Rocket 3.7 03:10:08 10° NNW 03:14:20 51° W 03:18:30 10° S
Cosmos 1455 Rocket 4.1 03:11:32 15° SW 03:14:30 30° WNW 03:18:26 10° N
Cosmos 1758 4.1 03:13:24 15° SW 03:16:23 36° WNW 03:20:09 10° N
Resurs 1-4 Rocket 4.1 03:13:59 10° NNW 03:16:40 14° NW 03:19:22 10° W
Spot 4 Rocket 4.1 03:12:24 10° N 03:17:33 67° WNW 03:22:39 10° SSW
Meteor 1-21 Rocket 4.2 03:12:37 10° NNW 03:18:09 67° W 03:23:37 10° S
Cosmos 2227 Rocket 3.8 03:15:44 10° W 03:20:11 23° NW 03:24:40 10° N
SeaSat 1 2.9 03:16:50 10° NE 03:21:46 62° ESE 03:26:38 10° SSW
Landsat 5 3.3 03:20:47 10° S 03:24:39 65° WSW 03:28:40 10° NNW
CZ-2C R/B 2.7 03:21:50 10° N 03:25:43 72° WNW 03:29:31 10° SSW
CZ-2D R/B 3.9 03:23:23 10° N 03:27:16 44° WNW 03:31:04 10° SW
Cosmos 1461 3.8 03:23:26 12° WSW 03:27:18 42° NW 03:31:42 10° NNE
Cosmos 1048 Rocket 4.3 03:24:55 10° NNW 03:30:03 72° ENE 03:35:13 10° SSE
FALCON 9 DEB 3.5 03:27:14 10° WNW 03:30:33 42° SW 03:33:50 10° SE
Cosmos 2227 4.3 03:25:07 10° SSW 03:30:53 82° WNW 03:36:42 10° NNE
USA 215 3.7 03:25:01 10° NE 03:31:25 58° NNW 03:37:48 10° W
Cosmos 1758 Rocket 3.5 03:28:00 10° N 03:32:20 87° W 03:36:40 10° S
ATLAS 3B CENTAUR R/B 4.4 03:27:14 10° WSW 03:32:29 15° SSW 03:36:09 10° S
ATLAS CENTAUR R/B 3.5 03:29:29 10° SSE 03:32:40 21° ESE 03:35:44 10° ENE
Cosmos 1340 Rocket 4.1 03:29:56 11° SW 03:33:05 25° WNW 03:36:25 10° NNW
ERS-2 2.3 03:32:22 10° S 03:35:55 51° WSW 03:39:30 10° NNW
Cosmos 2228 3.6 03:32:55 10° S 03:37:13 63° E 03:41:35 10° NNE
SL-4 R/B 3.0 03:36:41 10° W 03:39:09 19° SW 03:41:37 10° S
Cosmos 1953 2.9 03:35:31 10° SW 03:39:18 40° WNW 03:43:08 10° N
Cosmos 1726 3.1 03:38:58 10° SW 03:42:15 30° WNW 03:45:33 10° N
Cosmos 1908 3.2 03:40:29 10° SSW 03:44:22 72° W 03:48:18 10° N
Meteor 1-16 Rocket 4.2 03:40:14 10° SSW 03:45:33 66° WNW 03:51:04 10° N
Cosmos 2285 Rocket 4.1 03:41:05 10° SSW 03:47:23 85° ESE 03:53:43 10° NNE
SL-16 R/B 3.9 03:47:28 10° WNW 03:49:39 12° W 03:51:49 10° WSW
H-2A R/B 2.7 03:46:43 10° SSW 03:50:25 32° W 03:54:07 10° NNW
Cosmos 2150 Rocket 4.0 03:47:01 10° SSW 03:52:11 87° WNW 03:57:26 10° NNE
